Flag for Finland Weather past 2 weeks in Lahti, Finland

Now
34 °F

Overcast.


Feels Like: 29 °F
Forecast: 37 / 39 °F
Wind: 6 mph from Southeast

Location: Utti

Current Time: Mar 29, 2015 at 9:42:15 AM

Latest Report: Mar 29, 2015 at 8:50 AM


Visibility: N/A

Pressure: 29.80 "Hg

Humidity: 100%

Dew point: 34 °F

Location of LahtiLocation

Historic Weather in Lahti — Graph

°F

Lahti temperature yesterday

Maximum temperature yesterday: 41 °F (at 10:50 AM)
Minimum temperature yesterday: 34 °F (at 10:20 PM)
Average temperature yesterday: 38 °F

Past Weeks' High & Low Weather Summary

 TemperatureHumidityPressure
High52 °F (Mar 18, 2:20 PM)100% (Mar 23, 12:20 AM)31.07 "Hg (Mar 23, 12:20 AM)
Low14 °F (Mar 22, 5:20 AM)20% (Mar 16, 4:20 PM)29.21 "Hg (Mar 24, 3:50 AM)
Average34 °F62%30.25 "Hg
* Reported Mar 14 7:20 AM — Mar 29 8:20 AM, Lahti, Weather by CustomWeather, © 2015

Note: Actual official high and low records may vary slightly from our data, if they occured in-between our weather recording intervals... More about our weather records

Advertising

Lahti weather history for previous 24 hours

 ConditionsComfort  
Time TempWeatherWind HumidityBarometerVisibility
8:20 AM
Sun, Mar 29
34 °FLow clouds.8 mph100%29.80 "HgN/A
7:50 AM34 °FMore clouds than sun.6 mph100%29.80 "HgN/A
7:20 AM34 °FMostly cloudy.5 mph100%29.80 "HgN/A
6:50 AM34 °FLow clouds.7 mph100%29.80 "HgN/A
6:20 AM34 °FLow clouds.6 mph100%29.83 "HgN/A
5:50 AM34 °FFog.7 mph100%29.83 "Hg1 mi
5:20 AM34 °FFog.7 mph100%29.83 "Hg0 mi
4:50 AM34 °FFog.7 mph100%29.83 "Hg0 mi
4:20 AM34 °FFog.6 mph100%29.83 "Hg0 mi
2:50 AM34 °FFog.6 mph100%29.83 "Hg2 mi
2:20 AM34 °FLow clouds.5 mph100%29.86 "Hg4 mi
1:50 AM34 °FMostly cloudy.3 mph100%29.86 "HgN/A
1:20 AM34 °FMostly cloudy.5 mph100%29.86 "HgN/A
12:50 AM34 °FLow clouds.9 mph100%29.86 "HgN/A
12:20 AM34 °FSprinkles. Low clouds.6 mph100%29.86 "HgN/A
11:50 PM
Sat, Mar 28
34 °FLight rain. Light fog.6 mph100%29.86 "Hg5 mi
10:50 PM34 °FLight rain. Fog.5 mph100%29.86 "Hg2 mi
10:20 PM34 °FLight rain. Low clouds.5 mph100%29.86 "Hg6 mi
9:50 PM36 °FLight rain. Low clouds.8 mph93%29.86 "Hg5 mi
9:20 PM36 °FLight rain. Low clouds.7 mph93%29.86 "HgN/A
8:50 PM36 °FLight rain. Low clouds.7 mph93%29.86 "Hg4 mi
8:20 PM36 °FLight rain. Low clouds.9 mph100%29.86 "HgN/A
7:50 PM37 °FLight rain. Low clouds.9 mph93%29.86 "Hg4 mi
7:20 PM37 °FLight rain. Fog.7 mph93%29.86 "Hg1 mi
6:50 PM37 °FLight rain. Fog.8 mph93%29.86 "Hg1 mi
6:20 PM37 °FLight rain. Fog.9 mph93%29.86 "Hg1 mi
5:50 PM37 °FLight rain. Fog.9 mph93%29.86 "Hg1 mi
5:20 PM37 °FLight rain. Fog.9 mph93%29.86 "Hg2 mi
4:50 PM37 °FRain. Fog.10 mph93%29.86 "Hg2 mi
4:20 PM37 °FRain. Low clouds.8 mph93%29.89 "Hg2 mi
3:50 PM37 °FLight rain. Mostly cloudy.10 mph87%29.86 "Hg4 mi
3:20 PM39 °FMore clouds than sun.14 mph81%29.86 "HgN/A
2:50 PM39 °FOvercast.15 mph81%29.86 "HgN/A
2:20 PM39 °FOvercast.16 mph81%29.89 "HgN/A
1:50 PM39 °FOvercast.15 mph81%29.89 "HgN/A
1:20 PM39 °FPartly sunny.16 mph81%29.89 "HgN/A
12:50 PM39 °FPassing clouds.16 mph75%29.89 "HgN/A
12:20 PM41 °FPartly sunny.15 mph70%29.89 "HgN/A
11:50 AM41 °FPassing clouds.16 mph70%29.89 "HgN/A
11:20 AM41 °FPartly sunny.17 mph70%29.89 "HgN/A
10:50 AM41 °FPassing clouds.14 mph70%29.89 "HgN/A
10:20 AM39 °FSunny.15 mph75%29.89 "Hg10 mi
9:50 AM39 °FPassing clouds.15 mph75%29.89 "HgN/A
9:20 AM37 °FSunny.15 mph81%29.89 "Hg10 mi
Weather by CustomWeather, © 2015

See weather overviewHow to use our weather pages